Zapata, TX

9:05 PM CDT on May 29, 2017 (GMT -0500)
Zapata

Weather History for KAPY - November, 2013

Change the Weather History Date:

Sunday, November 3, 2013

  Actual Average (KLRD) Record (KLRD)
Temperature  
Mean Temperature 60 °F -  
Max Temperature 80 °F 76 °F 93 °F (1994)
Min Temperature 39 °F 58 °F 33 °F (1951)
Degree Days  
Heating Degree Days 6    
Growing Degree Days 10 (Base 50)    
Moisture  
Dew Point 37 °F    
Average Humidity 46    
Maximum Humidity 79    
Minimum Humidity 19    
Precipitation  
Precipitation 0.00 in - - ()
Sea Level Pressure  
Sea Level Pressure 30.08 in    
Wind  
Wind Speed 3 mph (ESE)    
Max Wind Speed 14 mph    
Max Gust Speed 20 mph    
Visibility 10 miles    
Events      
Averages and records for this station are not official NWS values.
T = Trace of Precipitation, MM = Missing Value Source: NWS Daily Summary

Daily Weather History Graph

Daily Weather History Graph

Search for Another Location

Airport or City:

Trip Planner

Search our weather history database for the weather conditions in past years. The results will help you decide how hot, cold, wet, or windy it might be!

Date:

Astronomy

Nov. 03, 2013 Rise Set
Actual Time 6:48 AM CST 5:52 PM CST
Civil Twilight 6:24 AM CST 6:16 PM CST
Nautical Twilight 5:56 AM CST 6:43 PM CST
Astronomical Twilight 5:29 AM CST 7:11 PM CST
Moon 6:52 AM CST (11/3) 6:11 PM CST (11/3)
Length of Visible Light 11h 52m
Length of Day
11h 03m
New Moon, 0% of the Moon is Illuminated
Nov 3
New Moon
Nov 9
First Quarter
Nov 17
Full
Nov 25
Last Quarter
Dec 2
New

Hourly Weather History & Observations

Time (CST) Temp. Dew Point Humidity Pressure Visibility Wind Dir Wind Speed Gust Speed Precip Events Conditions
12:15 AM 48.2 °F 35.1 °F 60% 30.22 in 10.0 mi Calm Calm - N/A   Clear
12:35 AM 48.4 °F 35.4 °F 61% 30.21 in 10.0 mi Calm Calm - N/A   Clear
12:55 AM 47.5 °F 33.8 °F 59% 30.20 in 10.0 mi Calm Calm - N/A   Clear
1:15 AM 46.6 °F 36.1 °F 67% 30.20 in 10.0 mi Calm Calm - N/A   Clear
1:35 AM 46.4 °F 35.6 °F 66% 30.19 in 10.0 mi Calm Calm - N/A   Clear
1:55 AM 45.5 °F 36.0 °F 69% 30.19 in 10.0 mi Calm Calm - N/A   Clear
1:15 AM 43.9 °F 34.2 °F 69% 30.19 in 10.0 mi Calm Calm - N/A   Clear
1:35 AM 44.1 °F 34.7 °F 70% 30.18 in 10.0 mi Calm Calm - N/A   Clear
1:55 AM 44.2 °F 34.9 °F 70% 30.17 in 10.0 mi Calm Calm - N/A   Clear
2:15 AM 43.9 °F 35.1 °F 71% 30.17 in 10.0 mi Calm Calm - N/A   Clear
2:35 AM 44.1 °F 35.1 °F 71% 30.16 in 10.0 mi Calm Calm - N/A   Clear
2:55 AM 43.5 °F 34.7 °F 71% 30.16 in 10.0 mi Calm Calm - N/A   Clear
3:15 AM 42.4 °F 34.5 °F 74% 30.15 in 10.0 mi Calm Calm - N/A   Clear
3:35 AM 42.1 °F 33.8 °F 72% 30.15 in 10.0 mi Calm Calm - N/A   Clear
3:55 AM 41.0 °F 34.0 °F 76% 30.15 in 10.0 mi Calm Calm - N/A   Clear
4:15 AM 42.6 °F 34.7 °F 74% 30.15 in 10.0 mi Calm Calm - N/A   Clear
4:35 AM 41.9 °F 34.7 °F 76% 30.15 in 10.0 mi Calm Calm - N/A   Clear
4:55 AM 41.0 °F 33.3 °F 74% 30.15 in 10.0 mi Calm Calm - N/A   Clear
5:15 AM 40.1 °F 33.1 °F 76% 30.14 in 10.0 mi Calm Calm - N/A   Clear
5:35 AM 42.6 °F 34.2 °F 72% 30.14 in 10.0 mi Calm Calm - N/A   Clear
5:55 AM 43.9 °F 34.9 °F 71% 30.13 in 10.0 mi Calm Calm - N/A   Clear
6:15 AM 41.4 °F 34.7 °F 77% 30.13 in 10.0 mi Calm Calm - N/A   Clear
6:35 AM 39.2 °F 32.9 °F 78% 30.13 in 10.0 mi Calm Calm - N/A   Clear
6:55 AM 39.9 °F 33.8 °F 79% 30.13 in 10.0 mi Calm Calm - N/A   Clear
7:15 AM 45.7 °F 34.3 °F 65% 30.13 in 10.0 mi Calm Calm - N/A   Clear
7:35 AM 48.6 °F 37.2 °F 65% 30.13 in 10.0 mi East 3.5 mph - N/A   Clear
7:55 AM 55.2 °F 39.4 °F 55% 30.14 in 10.0 mi East 5.8 mph - N/A   Clear
8:15 AM 58.6 °F 39.4 °F 49% 30.14 in 10.0 mi East 9.2 mph - N/A   Clear
8:35 AM 61.7 °F 39.9 °F 45% 30.14 in 10.0 mi East 10.4 mph - N/A   Clear
8:55 AM 63.5 °F 40.3 °F 43% 30.15 in 10.0 mi ESE 5.8 mph - N/A   Clear
9:15 AM 66.9 °F 41.2 °F 39% 30.15 in 10.0 mi ESE 10.4 mph - N/A   Clear
9:35 AM 69.1 °F 41.5 °F 37% 30.15 in 10.0 mi ESE 10.4 mph - N/A   Clear
9:55 AM 71.2 °F 41.0 °F 33% 30.14 in 10.0 mi ESE 12.7 mph - N/A   Clear
10:15 AM 72.5 °F 40.5 °F 31% 30.14 in 10.0 mi SE 8.1 mph - N/A   Clear
10:35 AM 72.7 °F 39.4 °F 30% 30.13 in 10.0 mi SE 11.5 mph 18.4 mph N/A   Clear
10:55 AM 73.8 °F 39.2 °F 29% 30.12 in 10.0 mi ESE 9.2 mph 16.1 mph N/A   Clear
11:15 AM 75.2 °F 38.8 °F 27% 30.12 in 10.0 mi SSE 10.4 mph - N/A   Clear
11:35 AM 75.7 °F 38.3 °F 26% 30.10 in 10.0 mi ESE 11.5 mph - N/A   Clear
11:55 AM 76.3 °F 38.3 °F 25% 30.09 in 10.0 mi SSE 10.4 mph 18.4 mph N/A   Clear
12:15 PM 76.8 °F 37.2 °F 24% 30.07 in 10.0 mi SE 8.1 mph 19.6 mph N/A   Clear
12:35 PM 77.5 °F 37.0 °F 23% 30.06 in 10.0 mi ESE 8.1 mph - N/A   Clear
12:55 PM 77.9 °F 36.5 °F 22% 30.03 in 10.0 mi SSE 13.8 mph 17.3 mph N/A   Clear
1:15 PM 78.6 °F 36.1 °F 22% 30.02 in 10.0 mi ESE 6.9 mph - N/A   Clear
1:35 PM 79.5 °F 36.1 °F 21% 30.01 in 10.0 mi SE 12.7 mph - N/A   Clear
1:55 PM 79.7 °F 34.7 °F 20% 30.00 in 10.0 mi South 9.2 mph 16.1 mph N/A   Clear
2:15 PM 79.7 °F 34.0 °F 19% 29.99 in 10.0 mi ESE 5.8 mph - N/A   Clear
2:35 PM 79.7 °F 34.3 °F 19% 29.99 in 10.0 mi ESE 8.1 mph - N/A   Clear
2:55 PM 80.4 °F 34.7 °F 19% 29.98 in 10.0 mi ESE 10.4 mph 16.1 mph N/A   Clear
3:15 PM 79.7 °F 34.2 °F 19% 29.97 in 10.0 mi ESE 9.2 mph - N/A   Clear
3:35 PM 79.9 °F 34.0 °F 19% 29.97 in 10.0 mi ESE 9.2 mph 17.3 mph N/A   Clear
3:55 PM 79.9 °F 34.2 °F 19% 29.97 in 10.0 mi SE 10.4 mph 18.4 mph N/A   Clear
4:15 PM 79.2 °F 33.6 °F 19% 29.98 in 10.0 mi SE 10.4 mph - N/A   Clear
4:35 PM 78.1 °F 33.3 °F 20% 29.98 in 10.0 mi SE 6.9 mph - N/A   Clear
4:55 PM 77.2 °F 34.9 °F 22% 29.97 in 10.0 mi ESE 8.1 mph - N/A   Clear
5:15 PM 77.2 °F 34.9 °F 22% 29.97 in 10.0 mi ESE 8.1 mph - N/A   Clear
5:35 PM 75.6 °F 35.6 °F 23% 29.98 in 10.0 mi ESE 8.1 mph - N/A   Clear
5:55 PM 73.2 °F 35.6 °F 25% 29.98 in 10.0 mi East 6.9 mph - N/A   Clear
6:15 PM 71.1 °F 36.0 °F 28% 29.98 in 10.0 mi East 6.9 mph - N/A   Clear
6:35 PM 69.3 °F 36.7 °F 30% 29.98 in 10.0 mi East 5.8 mph - N/A   Clear
6:55 PM 68.7 °F 37.0 °F 31% 29.99 in 10.0 mi East 5.8 mph - N/A   Clear
7:15 PM 68.2 °F 37.6 °F 33% 29.99 in 10.0 mi East 5.8 mph - N/A   Clear
7:35 PM 68.4 °F 37.8 °F 33% 30.00 in 10.0 mi East 5.8 mph - N/A   Clear
7:55 PM 67.5 °F 38.3 °F 34% 30.01 in 10.0 mi East 3.5 mph - N/A   Clear
8:15 PM 67.3 °F 40.1 °F 37% 30.01 in 10.0 mi East 6.9 mph - N/A   Clear
8:35 PM 67.6 °F 43.2 °F 41% 30.02 in 10.0 mi East 5.8 mph - N/A   Clear
8:55 PM 67.5 °F 45.0 °F 44% 30.03 in 10.0 mi East 5.8 mph - N/A   Clear
9:15 PM 67.5 °F 47.5 °F 49% 30.03 in 10.0 mi ESE 6.9 mph - N/A   Clear
9:35 PM 67.3 °F 48.2 °F 50% 30.03 in 10.0 mi East 8.1 mph - N/A   Clear
9:55 PM 66.6 °F 48.7 °F 53% 30.03 in 10.0 mi ESE 6.9 mph - N/A   Clear
10:15 PM 65.8 °F 49.1 °F 55% 30.03 in 10.0 mi ESE 6.9 mph - N/A   Clear
10:35 PM 65.3 °F 49.1 °F 56% 30.03 in 10.0 mi ESE 5.8 mph - N/A   Clear
10:55 PM 65.3 °F 49.5 °F 57% 30.03 in 10.0 mi ESE 5.8 mph - N/A   Clear